Regional Weather Roundup
Issued by NWS

Home | Current Version | Previous Version | Text Only | Print | Product List | Glossary Off
Versions: 1 2 3 4 5 6 7 8 9 10 11 12 13 14 15 16 17 18 19 20 21 22 23 24 25 26 27 28 29 30 31 32 33 34 35 36 37 38 39 40 41 42 43 44 45 46 47 48 49 50

000
ASUS43 KIND 012209
RWRIN

WEATHER ROUNDUP FOR INDIANA
NATIONAL WEATHER SERVICE INDIANAPOLIS IN
600 PM EDT WED OCT 01 2014

NOTE: "FAIR" INDICATES FEW OR NO CLOUDS BELOW 12,000 FEET WITH NO
SIGNIFICANT WEATHER AND/OR OBSTRUCTIONS TO VISIBILITY.

* - STATION DOES NOT REPORT WEATHER SUCH AS PRECIPITATION OR FOG.

+ - STATION NOT QUALITY CONTROLLED BY THE NATIONAL WEATHER SERVICE.
    USE DATA WITH CAUTION...ESPECIALLY DEWPOINT AND RELATIVE
    HUMIDITY OBSERVATIONS.

INZ001>003-010>013-019-020-012300-
NORTHWEST INDIANA

CITY           SKY/WX    TMP DP  RH WIND       PRES   REMARKS
GARY /AIRPORT/ PTSUNNY   72  52  49 SE12      29.91F
KNOX *+        SUNNY     67  49  50 SE7       29.94S
LA PORTE +     SUNNY     68  51  53 SE7       29.95S
MICHIGAN CITY+ SUNNY     66  46  48 SE6       29.94S
MONTICELLO +   SUNNY     72  55  54 E7        29.92F
RENSSELAER +   MOSUNNY   72  54  53 E8        29.92F
VALPARAISO     MOSUNNY   68  51  54 SE10      29.94S

$$

LMZ046-743>745-012300-
SOUTHERN LAKE MICHIGAN

STATION/POSITION TIME  TEMP WIND        PRES
                       AIR  DIR/SP/G
                 (UTC) (F)  (DEG/KT/KT) (MB)
MICHIGAN CITY    2200   67  110/ 11/ 16   N/A

$$

INZ004-005-014>016-021>024-012300-
NORTH CENTRAL INDIANA

CITY           SKY/WX    TMP DP  RH WIND       PRES   REMARKS
ELKHART        SUNNY     66  48  52 E10       29.97F
LOGANSPORT +   SUNNY     70  50  49 SE8       29.96S
PERU/GRISSOM   SUNNY     70  53  55 E7        29.95F
ROCHESTER +    SUNNY     70  50  49 SE9       29.96S
SOUTH BEND     NOT AVBL
WARSAW +       SUNNY     66  50  55 SE5       29.97F

$$

INZ006>009-017-018-025>027-012300-
NORTHEAST INDIANA

CITY           SKY/WX    TMP DP  RH WIND       PRES   REMARKS
ANGOLA *+      SUNNY     66  48  52 SE7       29.99F
AUBURN +       SUNNY     68  46  45 SE3       30.00S
FORT WAYNE     MOSUNNY   66  50  56 E7        30.00S
HUNTINGTON +   SUNNY     66  52  61 E5        29.98S

$$

INZ028-029-035-036-043>045-051>053-012300-
WEST CENTRAL INDIANA

CITY           SKY/WX    TMP DP  RH WIND       PRES   REMARKS
CRAWFORDSVL +    N/A     75  54  46 SE8       29.92S
GREENCASTLE +  SUNNY     75  59  57 S7        29.93S
LAFAYETTE      SUNNY     74  58  57 E9        29.91F
TERRE HAUTE    SUNNY     80  56  43 S6        29.90F

$$

INZ030>032-037>040-046>048-054>057-064-065-012300-
CENTRAL INDIANA

CITY           SKY/WX    TMP DP  RH WIND       PRES   REMARKS
CP ATTERBURY + SUNNY     77  59  53 S5        29.95F
COLUMBUS       SUNNY     79  55  44 CALM      29.94F
FRANKFORT +    SUNNY     77  55  46 E8        29.95S
INDIANAPOLIS   MOSUNNY   76  57  51 SE7       29.93F
-EAGLE CREEK   SUNNY     76  57  51 SE5       29.94S
KOKOMO *+      SUNNY     72  50  46 SE8       29.96F
MARION +       PTSUNNY   69  47  44 SE9       29.98S
MT COMFORT *+  SUNNY     75  41  29 E8        29.96S
SHELBYVILLE    SUNNY     79  56  45 E7        29.94F
ZIONSVILLE +   SUNNY     75  54  48 SE6       29.96S

$$

INZ033-034-041-042-049-050-058-059-012300-
EAST CENTRAL INDIANA

CITY           SKY/WX    TMP DP  RH WIND       PRES   REMARKS
MUNCIE         MOSUNNY   71  47  42 SE6       29.98S

$$

INZ060-061-067>069-081>083-085>088-012300-
SOUTHWEST INDIANA

CITY           SKY/WX    TMP DP  RH WIND       PRES   REMARKS
EVANSVILLE     SUNNY     85  55  35 S6        29.89F
WASHINGTON +   SUNNY     83  56  38 S7        29.89F

$$

INZ062-063-066-070>080-084-089>092-012300-
SOUTH CENTRAL AND SOUTHEAST INDIANA

CITY           SKY/WX    TMP DP  RH WIND       PRES   REMARKS
BLOOMINGTON    SUNNY     77  61  57 SE6       29.93F

$$



USA.gov is the U.S. government's official web portal to all federal, state and local government web resources and services.